Location: Biltmore Gardens
(41.6070°N, 83.4666°W)
Time: 14:22:09
(UTC+00:00)

NOSS 3-4 (A) - Pass Details

Date: 14 July 2020
Orbit: 892 x 1320 km, 63.4° (Epoch: 12 July)

Event Time Altitude Azimuth Distance (km) Brightness Sun altitude
Rises 03:01:48 0° 323° (NW) 3,863 8.4 -17.0°
Reaches altitude 10° 03:04:21 10° 321° (NW) 2,964 7.4 -17.3°
Maximum altitude 03:11:26 74° 239° (WSW) 1,231 4.0 -18.1°
Enters shadow 03:16:05 27° 159° (SSE) 2,191 4.7 -18.6°
